Location: Turtle Rock Observatory
(36.6913°N, 81.9708°W)
Time: 18:33:56
(UTC-04:00)

TITAN 4B R/B - Visible Passes

Search period start: 06 May 2015 00:00
Search period end: 16 May 2015 00:00
Orbit: 466 x 650 km, 57.0° (Epoch: 30 April)

Date Brightness Start Highest point End Pass type
(mag) Time Alt. Az. Time Alt. Az. Time Alt. Az.
06 May 1.7 05:59:45 10° SSW 06:03:16 52° SE 06:06:54 10° NE visible
08 May 1.2 05:54:42 10° SW 05:58:17 61° NW 06:01:59 10° NE visible
09 May 3.3 04:16:22 15° SE 04:16:47 15° ESE 04:19:04 10° E visible
09 May 1.8 05:52:24 10° WSW 05:55:51 40° NW 05:59:23 10° NNE visible
10 May 2.7 04:14:07 24° SE 04:14:11 24° ESE 04:17:12 10° ENE visible
10 May 2.4 05:50:16 10° WSW 05:53:26 27° NW 05:56:41 10° NNE visible
11 May 2.1 04:11:49 36° ESE 04:11:49 36° ESE 04:15:01 10° ENE visible
11 May 2.9 05:48:17 10° W 05:51:04 20° NW 05:53:52 10° NNE visible
12 May 1.5 04:09:25 55° E 04:09:25 55° E 04:12:39 10° NE visible
12 May 3.3 05:46:32 10° WNW 05:48:44 15° NNW 05:50:54 10° N visible
13 May 1.3 04:06:57 65° NNE 04:06:57 65° NNE 04:10:10 10° NE visible
13 May 3.6 05:45:11 10° NW 05:46:26 11° NNW 05:47:36 10° NNW visible
14 May 1.7 04:04:26 49° NNW 04:04:26 49° NNW 04:07:34 10° NNE visible
15 May 2.2 04:01:51 34° NNW 04:01:51 34° NNW 04:04:53 10° NNE visible
